Regional Weather Roundup
Issued by NWS

Home | Current Version | Previous Version | Graphics & Text | Print | Product List | Glossary On
Versions: 1 2 3 4 5 6 7 8 9 10 11 12 13 14 15 16 17 18 19 20 21 22 23 24 25 26 27 28 29 30 31 32 33 34 35 36 37 38 39 40 41 42 43 44 45 46 47 48 49 50
065
ASUS43 KMKX 050400
RWRWI

WISCONSIN REGIONAL WEATHER ROUNDUP
NATIONAL WEATHER SERVICE MILWAUKEE/SULLIVAN WI
1100 PM CDT WED MAY 04 2016

NOTE: "FAIR" INDICATES FEW OR NO CLOUDS BELOW 12,000 FEET WITH NO
SIGNIFICANT WEATHER AND/OR OBSTRUCTIONS TO VISIBILITY.

WIZ001-002-006>008-014>016-023>028-050500-
NORTHWEST WISCONSIN

CITY           SKY/WX    TMP DP  RH WIND       PRES   REMARKS
SUPERIOR ARPT  PTCLDY    35  32  86 N5        30.01S WCI  31
ASHLAND        CLOUDY    34  31  88 CALM      30.01S
HAYWARD        PTCLDY    36  28  73 N5        30.00S WCI  32
SIREN          CLEAR     44  24  47 E3        29.99R
CUMBERLAND     PTCLDY    46  27  46 E5        29.99S
RICE LAKE      PTCLDY    46  28  48 CALM      30.01S
CHETEK         PTCLDY    48  28  45 CALM      29.99S
LADYSMITH      CLEAR     40  30  69 CALM      30.01S
EAU CLAIRE     NOT AVBL
MENOMONIE      CLEAR     48  22  36 NE5       30.00R
NEW RICHMOND   CLEAR     45  28  51 CALM      29.99S
OSCEOLA        CLEAR     43  31  61 S3        30.01S
$$

WIZ003>005-009-010-017-018-050500-
NORTH CENTRAL WISCONSIN

CITY           SKY/WX    TMP DP  RH WIND       PRES   REMARKS
MANITOWISH WTR CLEAR     33  33 100 CALM      29.99S
ARBOR VITAE    CLEAR     37  32  82 N3        29.98S
WOODRUFF       CLEAR     37  32  82 N3        29.98S
RHINELANDER    CLEAR     38  30  73 CALM      29.98S
EAGLE RIVER    CLEAR     31  28  87 CALM      29.97S
LAND O LAKES   CLEAR     31  30  96 CALM      29.99S
PHILLIPS       CLEAR     38  32  80 CALM      29.99S
TOMAHAWK       CLEAR     33  30  88 CALM      29.99R
MEDFORD        CLEAR     40  31  70 N3        29.98S
MERRILL        CLEAR     38  31  76 CALM      29.99R
$$

WIZ029-030-035-036-043>047-050500-
CENTRAL WISCONSIN

CITY           SKY/WX    TMP DP  RH WIND       PRES   REMARKS
WAUSAU         CLEAR     45  32  60 CALM      29.96R
MOSINEE        CLEAR     43  32  65 N7        29.98R
MARSHFIELD     CLEAR     47  31  53 N7        29.97R
STEVENS POINT  CLEAR     43  31  63 N6        29.97S
WAUPACA        CLEAR     47  33  58 N6        29.96S
WAUTOMA        CLEAR     46  32  58 N8        29.96R
WISC RAPIDS    CLEAR     43  30  60 N5        29.98R
CAMP DOUGLAS   NOT AVBL
$$

WIZ011>013-019>022-031-037>040-048>050-050500-
NORTHEAST WISCONSIN

CITY           SKY/WX    TMP DP  RH WIND       PRES   REMARKS
ANTIGO         CLEAR     36  32  86 CALM      29.96S
SHAWANO        CLEAR     44  33  67 NE8       29.97S
OCONTO         CLEAR     39  32  75 N3        29.97S
STURGEON BAY   CLEAR     39  28  65 N16G23    29.97S WCI  30
GREEN BAY      CLEAR     41  32  70 N12       29.96S
MANITOWOC      NOT AVBL
APPLETON       CLEAR     39  30  70 N9        29.94R WCI  33
CLINTONVILLE   CLEAR     41  32  70 NE6       29.97R
OSHKOSH        CLEAR     44  32  62 N16G24    29.95R
$$

WIZ032>034-041-042-053>061-050500-
SOUTHWEST WISCONSIN

CITY           SKY/WX    TMP DP  RH WIND       PRES   REMARKS
LA CROSSE      CLEAR     52  25  35 NE8       29.97R
SPARTA         CLEAR     46  29  52 NE6       29.98S
VIROQUA        CLEAR     46  28  49 NE7       29.96R
BOSCOBEL       CLEAR     49  27  42 NE5       29.95R
PRAIRIE DU CHI CLEAR     51  22  32 N5        29.95R
PLATTEVILLE    CLEAR     46  31  56 N10       29.93R
$$

WIZ056-057-062-063-064-067-068-050500-
SOUTH CENTRAL WISCONSIN

CITY           SKY/WX    TMP DP  RH WIND       PRES   REMARKS
REEDSBURG      CLEAR     48  32  54 N8        29.95R
BARABOO/DELLS  CLEAR     48  31  51 N8        29.95R
LONE ROCK      NOT AVBL
MINERAL POINT  CLEAR     50  30  46 NE7       29.93R
MADISON        PTCLDY    44  36  73 NE7       29.93R
MIDDLETON      CLEAR     49  34  56 N9        29.93R
WATERTOWN      CLEAR     43  35  71 NE8       29.92R
MONROE         CLEAR     46  34  61 N9        29.91R
JANESVILLE     CLEAR     43  37  81 CALM      29.91
$$

WIZ051-052-058>065-066-070>072-050500-
SOUTHEAST WISCONSIN

CITY           SKY/WX    TMP DP  RH WIND       PRES   REMARKS
MILWAUKEE      PTCLDY    40  34  79 N16       29.92R WCI  31
WAUKESHA       CLEAR     37  32  81 NE6       29.93S WCI  33
MILWAUKEE/TIMM CLEAR     37  32  81 N8        29.93S WCI  31
RACINE         MOCLDY    41  34  76 N15G25    29.92S
BURLINGTON     CLEAR     38  33  82 N5        29.92R WCI  35
KENOSHA        PTCLDY    40  34  79 N12       29.90S WCI  33
FOND DU LAC    CLEAR     44  34  67 NE16G24   29.95R
SHEBOYGAN      CLEAR     41  33  73 N9        29.93S
WEST BEND      CLEAR     37  34  87 N3        29.93R
JUNEAU         CLEAR     42  34  73 N7        29.94R
$$

LSZ147-162-050500-
LAKE SUPERIOR

STATION/POSITION TIME  TEMP    WIND        PRES    WAVE
                       AIR SEA DIR/SP/G            HT/PER
                 (UTC) (F)     (DEG/KT/KT) (MB)    (FT/S)
W MID LAKE BUOY  0250   36 36  330/  4/  4 1017.2S   1/ 4
DEVILS ISLAND    0300   41     140/  6/  8 1017.0R
PORT WING        0230   39      CALM  /  3 1016.3
SAXON HARBOR     0340   35     190/  3/  5 1015.9R
$$

LMZ867-665-643>646-050500-
LAKE MICHIGAN

STATION/POSITION TIME  TEMP    WIND        PRES    WAVE
                       AIR SEA DIR/SP/G            HT/PER
                 (UTC) (F)     (DEG/KT/KT) (MB)    (FT/S)
CHAMBERS ISLAND  0300   41     330/ 16/ 17 1014.6S
N MID LAKE BUOY  0250   39 38  330/ 17/ 21 1013.4R   3/ 5
NORTHPORT PIER   0321   40     340/ 17/ 21 1014.2R
ALGOMA LAKESHORE 0300          360/ 17/ 24   N/A
KEWAUNEE LAKESHO 0300                      1013.4R
SHEBOYGAN LAKESH 0300   42      10/ 17/ 19 1014.2R
PORT WASHINGTON  0340   41     340/  4/  8 1014.2S
S MID LAKE BUOY  0250   41 40   10/ 27/ 33 1010.1R   9/ 8
KENOSHA   LAKESH 0300   43      10/ 23/ 29 1012.2R
$$

TC  - TEMPERATURE IN CELSIUS
VSB - VISIBILITY IN STATUTE MILES
WCI - WIND CHILL INDEX
HX  - HEAT INDEX





USA.gov is the U.S. government's official web portal to all federal, state and local government web resources and services.